GFSGL_con_mucape_159.txt.gz
CAPE
1473 1264 1116 863 583 456 79 276 366 409 347 177 64 70 199 308 317 537 373 442 610 635 453 179 33 126 35 1 0 3 24 37 38 0 3 12 0 0 0 0 0 0 39
1781 1193 922 887 692 129 102 26 34 164 341 263 6 86 277 210 591 775 884 774 560 562 310 95 100 43 0 0 0 0 0 0 52 52 0 0 0 0 0 0 0 0 0
789 541 381 473 125 208 64 70 57 117 167 132 136 490 431 412 423 348 216 103 116 101 71 43 0 1 0 0 0 0 0 21 93 59 13 12 17 0 0 0 0 27 32
476 427 291 161 64 117 161 230 218 179 226 383 419 405 385 335 189 33 6 7 2 0 0 7 28 18 0 0 0 4 35 64 115 161 91 38 14 5 5 32 48 0 0
497 616 434 300 277 111 49 131 152 247 309 356 302 222 42 0 0 0 1 0 0 0 0 0 0 0 136 72 57 37 103 210 219 179 145 36 19 12 5 4 4 0 0
368 144 140 75 198 298 256 272 279 229 169 48 0 0 0 0 0 0 0 0 0 0 0 0 0 0 0 15 56 157 187 165 214 204 256 125 32 14 3 0 10 16 0
140 96 55 25 0 0 0 0 0 0 0 0 0 0 0 0 0 0 0 0 0 0 0 0 5 6 7 6 22 55 97 156 203 192 141 69 39 33 2 0 0 0 0
0 0 0 0 0 0 0 0 0 0 0 0 0 0 0 0 0 3 13 13 0 0 0 0 0 7 14 24 58 60 65 48 42 26 57 44 18 20 19 10 6 9 5
0 0 0 0 0 0 0 0 0 0 0 0 0 0 0 11 18 16 1 0 0 0 3 2 1 1 27 14 6 19 31 23 16 10 19 21 9 0 0 0 1 10 5
0 0 0 0 0 0 0 0 0 0 0 1 21 26 33 23 12 0 0 0 4 1 0 0 0 8 5 26 9 23 13 28 41 45 26 1 10 8 2 7 2 0 5
0 0 0 0 0 0 0 0 3 13 16 10 11 7 0 0 0 0 0 0 7 5 3 8 33 28 27 38 55 50 36 18 15 19 8 6 0 4 15 17 14 0 0
0 0 0 0 0 0 0 8 19 10 6 0 0 0 0 0 0 0 0 0 4 11 11 22 25 33 41 56 41 8 2 17 10 15 11 2 16 7 38 11 8 11 2
0 0 0 0 0 0 5 3 17 23 6 0 0 0 0 0 0 0 0 0 0 6 12 16 24 23 39 18 10 28 38 33 6 7 4 11 19 7 0 7 17 29 10
0 0 0 0 0 0 0 0 12 4 2 4 0 0 0 0 0 0 0 1 6 24 15 6 4 8 46 30 45 54 39 24 24 37 27 25 2 1 4 19 35 32 28
0 0 1 6 0 0 0 0 1 3 0 0 0 0 0 0 0 0 0 8 15 14 23 6 0 0 0 16 54 31 17 28 24 24 34 50 5 0 3 10 22 17 18
0 0 0 0 0 0 0 0 0 0 0 0 0 0 0 0 4 8 0 1 0 11 6 1 0 1 40 47 24 0 19 21 27 28 51 34 0 0 0 3 15 31 42
0 0 0 0 0 0 0 0 0 0 0 0 0 0 0 0 5 17 6 9 10 7 7 5 0 0 28 41 22 2 30 35 27 30 39 50 38 3 0 0 5 42 46
0 0 0 0 0 0 0 0 0 0 0 0 0 0 0 0 10 20 20 12 15 2 38 1 0 12 33 53 30 18 10 25 37 33 37 46 48 12 0 0 12 54 63
0 0 0 0 0 0 0 0 0 0 0 0 0 0 0 0 0 11 14 12 0 0 0 0 0 28 52 65 34 24 16 12 14 23 35 43 46 44 15 0 0 38 52
0 0 0 0 0 0 0 0 0 0 0 0 0 0 0 0 2 9 15 4 1 8 0 0 1 7 29 27 5 2 7 12 9 8 7 9 36 39 36 27 66 0 25
0 0 0 0 0 0 0 0 0 0 0 0 0 0 0 0 0 0 0 7 0 1 0 0 1 1 0 1 0 0 0 0 0 0 0 0 0 21 29 44 48 97 2
0 0 0 0 0 0 0 0 0 0 0 0 0 0 0 0 0 0 1 6 0 0 1 0 0 0 0 0 0 0 0 0 0 0 0 0 0 0 12 37 32 51 79
0 0 0 0 0 0 0 0 0 0 0 0 0 0 0 0 0 0 0 0 0 0 0 0 0 0 0 0 0 0 0 0 0 0 0 0 0 0 0 1 23 34 55
0 0 0 0 0 0 0 0 0 0 0 0 0 0 0 0 0 0 0 0 0 0 0 0 0 0 0 0 0 0 0 0 0 0 0 0 0 0 0 6 4 22 40
0 0 0 0 0 0 0 0 0 0 0 0 0 0 0 0 0 0 0 0 0 0 0 0 0 0 0 0 0 0 0 0 0 0 0 0 0 0 0 0 0 0 14
0 0 0 0 0 0 0 0 0 0 0 0 0 0 0 0 0 0 0 0 0 0 0 0 0 0 0 0 0 0 0 0 0 0 0 0 0 0 0 0 0 0 0

GFSGL_con_mucape_162.txt.gz
CAPE
729 961 1010 1119 1200 971 944 531 184 102 122 115 121 110 111 148 422 326 421 568 587 513 446 464 328 229 63 122 26 7 12 62 20 12 17 10 335 275 187 221 158 204 131
735 885 1157 1165 955 960 596 358 240 114 16 44 54 55 109 351 399 406 383 369 350 307 250 130 109 40 50 4 2 6 6 6 21 15 14 15 197 241 220 238 133 71 172
997 1114 1237 1073 1010 869 730 547 236 73 97 166 175 157 183 268 354 377 436 357 171 13 16 8 1 3 10 10 27 20 14 19 51 10 6 14 39 116 200 215 187 215 136
1387 896 755 619 573 469 341 54 61 91 31 95 143 179 245 301 222 56 0 0 0 0 0 2 3 7 16 17 26 39 68 91 22 11 13 95 54 72 355 124 70 194 177
674 552 540 462 459 396 259 132 105 76 82 124 147 162 116 14 0 0 0 0 1 2 0 0 0 0 2 2 13 14 84 23 28 145 48 95 188 136 98 159 156 72 113
441 395 319 190 90 84 52 21 0 0 0 0 0 0 0 0 0 0 0 0 0 0 0 0 2 1 0 1 5 9 46 66 95 141 67 44 151 94 276 304 164 71 4
329 89 44 29 10 0 0 0 0 0 0 0 0 0 0 0 0 0 0 0 0 0 0 0 0 2 3 0 1 15 50 68 95 64 97 77 95 152 148 248 167 120 32
3 0 0 0 0 0 0 0 0 0 0 0 0 0 0 0 0 0 0 0 0 0 0 3 4 0 0 2 3 9 10 23 22 30 4 6 31 59 120 161 119 72 32
0 0 0 0 0 0 0 0 0 0 0 0 0 0 0 0 0 0 0 0 0 0 0 0 0 0 5 15 15 24 28 33 42 40 31 27 21 13 13 7 16 42 12
0 0 0 0 0 0 0 0 0 0 0 0 0 0 0 0 0 0 0 0 0 0 0 0 0 12 33 38 23 40 45 45 44 11 11 25 36 14 5 4 7 23 24
0 0 0 0 0 0 0 0 0 0 0 0 0 0 0 0 0 0 0 0 0 0 0 0 3 11 40 46 40 48 22 26 44 65 38 46 90 100 25 29 45 52 0
0 0 0 0 0 0 0 0 0 0 7 3 1 0 0 0 0 0 0 0 0 0 0 21 26 17 7 42 45 34 36 70 61 36 28 16 12 44 18 4 0 0 2
0 0 0 0 0 0 0 0 1 10 4 1 2 0 0 0 0 0 0 0 0 14 30 29 20 22 0 24 3 36 55 54 34 38 25 24 2 0 0 2 2 18 15
0 0 0 0 0 0 0 0 0 0 0 1 0 0 0 0 0 0 0 0 0 4 21 11 27 5 9 0 3 39 43 41 23 19 14 23 20 1 0 1 2 4 22
0 0 0 0 0 0 0 0 0 0 0 0 0 0 0 0 0 0 1 12 6 7 24 8 16 8 0 28 38 28 48 48 38 20 25 31 30 24 1 0 2 2 21
0 0 0 0 0 0 0 0 0 0 0 0 0 0 0 0 0 4 24 24 15 34 35 6 7 0 0 0 52 53 25 13 12 12 26 29 39 40 14 0 1 12 18
0 0 0 0 0 0 0 0 0 0 0 0 0 0 0 0 0 0 21 37 24 5 10 2 0 0 0 40 45 39 18 8 6 7 7 16 33 43 25 0 0 2 11
0 0 0 0 0 0 0 0 0 0 0 0 0 0 0 0 0 0 10 8 9 2 0 0 0 0 2 19 11 19 10 5 5 3 0 4 21 58 43 0 0 6 29
0 0 0 0 0 0 0 0 0 0 0 0 0 0 0 0 0 1 0 0 0 3 0 0 0 0 5 13 2 0 0 0 0 0 0 0 0 30 45 33 12 0 6
0 0 0 0 0 0 0 0 0 0 0 0 0 0 0 0 0 0 0 1 2 8 0 0 0 0 0 0 0 0 0 0 0 0 0 0 0 10 34 49 43 27 0
0 0 0 0 0 0 0 0 0 0 0 0 0 0 0 0 0 0 0 0 0 0 0 0 0 0 0 0 0 0 0 0 0 0 0 0 0 0 7 21 50 41 55
0 0 0 0 0 0 0 0 0 0 0 0 0 0 0 0 0 0 0 0 0 0 0 0 0 0 0 0 0 0 0 0 0 0 0 0 0 0 1 5 18 40 27
0 0 0 0 0 0 0 0 0 0 0 0 0 0 0 0 0 0 0 0 0 0 0 0 0 0 0 0 0 0 0 0 0 0 0 0 0 0 0 0 0 11 32
0 0 0 0 0 0 0 0 0 0 0 0 0 0 0 0 0 0 0 0 0 0 0 0 0 0 0 0 0 0 0 0 0 0 0 0 0 0 0 0 0 0 5
0 0 0 0 0 0 0 0 0 0 0 0 0 0 0 0 0 0 0 0 0 0 0 0 0 0 0 0 0 0 0 0 0 0 0 0 0 0 0 0 0 0 0
0 0 0 0 0 0 0 0 0 0 0 0 0 0 0 0 0 0 0 0 0 0 0 0 0 0 0 0 0 0 0 0 0 0 0 0 0 0 0 0 0 0 0

GFSGL_con_mucape_168.txt.gz
CAPE
2666 2659 2765 2759 2925 3139 3100 2937 2653 2376 1776 1427 1175 1199 1228 1271 1344 1617 1511 1065 981 802 735 564 414 394 144 74 54 35 37 36 35 27 55 197 388 261 338 304 357 543 330
2585 2740 2785 2827 2830 2810 2457 2226 1693 1410 1174 1165 1123 1311 1206 1192 947 761 587 522 320 180 119 173 154 100 334 392 134 357 383 449 143 703 281 372 232 301 240 577 372 350 377
2613 2651 2565 2649 2371 2123 1756 1395 1256 1092 991 1066 1009 852 741 571 394 209 112 90 65 82 113 179 195 219 248 275 315 227 177 129 208 86 52 109 167 341 378 446 733 855 413
2491 2607 2494 2153 1963 1653 1325 1158 1108 809 544 348 261 198 77 14 16 38 29 39 59 78 100 127 138 143 375 144 89 198 141 53 27 70 181 285 147 435 451 208 349 867 914
2390 2312 1802 1475 1308 1032 803 609 391 246 114 17 0 1 8 11 1 3 25 43 53 65 62 109 132 58 32 18 25 34 100 10 38 301 312 309 212 355 490 681 790 270 283
1890 1562 1158 927 639 369 168 34 0 0 2 7 8 11 26 1 0 0 0 1 50 62 80 40 38 88 52 31 2 2 14 48 164 129 374 410 196 276 754 867 843 644 251
1026 783 498 283 47 0 0 0 0 2 8 14 27 38 43 6 0 0 0 6 29 32 27 20 22 50 20 26 0 2 8 26 62 139 107 139 91 391 585 659 669 586 452
401 302 93 6 0 0 0 1 3 7 11 19 30 24 36 7 0 0 0 16 29 27 20 10 11 6 1 0 0 20 141 263 152 171 30 104 115 253 171 321 363 344 296
216 4 0 0 0 0 1 4 4 3 6 8 19 14 26 11 0 0 0 4 21 17 17 20 1 1 0 0 0 0 0 7 1 1 1 12 23 49 44 65 229 228 7
0 0 0 0 0 1 3 4 4 3 8 0 7 20 10 18 1 0 0 2 7 5 20 26 0 0 0 0 0 0 1 9 0 0 25 98 142 544 103 258 27 0 0
0 0 0 0 2 3 7 9 11 7 10 11 10 11 20 11 12 0 0 0 0 0 0 1 0 0 0 0 0 0 0 1 7 36 44 49 92 108 83 54 76 4 0
0 0 0 0 0 4 10 12 11 9 4 4 4 1 1 14 0 0 0 0 0 0 0 5 2 4 0 0 3 6 0 9 35 35 11 2 5 7 41 24 6 0 0
0 0 0 0 1 4 2 1 0 0 0 0 0 0 0 5 14 0 0 0 0 0 0 50 60 1 0 5 6 0 1 6 21 6 0 0 0 0 0 16 15 5 0
17 0 0 0 3 0 0 0 0 0 0 0 0 0 0 0 0 0 0 0 0 0 0 0 0 0 2 0 3 0 3 13 3 0 0 0 0 0 0 28 8 0 0
0 0 0 0 0 0 0 0 0 0 0 0 0 0 0 0 0 0 0 0 0 0 0 0 0 0 0 0 2 7 3 0 0 0 0 0 0 0 1 27 21 0 0
0 0 0 0 0 0 0 0 0 0 0 0 0 0 0 0 0 0 0 0 0 0 0 0 0 0 0 0 0 0 0 0 0 0 0 0 0 0 2 17 5 2 0
0 0 0 0 0 0 0 0 0 0 0 0 0 0 0 0 0 0 0 0 0 0 0 0 0 0 0 0 0 0 0 0 0 0 0 0 0 0 1 11 24 4 0
0 0 0 0 0 0 0 0 0 0 0 0 0 0 0 0 0 0 0 0 0 0 0 0 0 0 0 0 0 0 0 0 0 0 0 0 0 0 0 0 5 4 17
0 0 0 0 0 0 0 0 0 0 0 0 0 0 0 0 0 0 0 0 0 0 0 0 0 0 0 0 0 0 0 0 0 0 0 0 0 0 0 0 0 7 12
0 0 0 0 0 0 0 0 0 0 0 0 0 0 0 0 0 0 0 0 0 0 0 0 0 0 0 0 0 0 0 0 0 0 0 0 0 0 1 0 0 5 23
0 0 0 0 0 0 0 0 0 0 0 0 0 0 0 0 0 0 0 0 0 0 0 0 0 0 0 0 0 0 0 0 0 0 0 0 0 0 1 1 2 0 20
0 0 0 0 0 0 0 0 0 0 0 0 0 0 0 0 0 0 0 0 0 0 0 0 0 0 0 0 0 0 0 0 0 0 0 0 0 0 0 0 0 0 5
0 0 0 0 0 0 0 0 0 0 0 0 0 0 0 0 0 0 0 0 0 0 0 0 0 0 0 0 0 0 0 0 0 0 0 0 3 0 0 0 0 0 0
0 0 0 0 0 0 0 0 0 0 0 0 0 0 0 0 0 0 0 0 0 0 0 0 0 0 0 0 0 0 0 0 0 0 0 0 7 0 0 0 0 0 1
0 0 0 0 0 0 0 0 0 0 0 0 0 0 0 0 0 0 0 0 0 0 0 0 0 0 0 0 0 0 0 0 0 0 0 0 2 0 0 0 0 0 1
0 0 0 0 0 0 0 0 0 0 0 0 0 0 0 0 0 0 0 0 0 0 0 0 0 0 0 0 0 0 0 0 0 0 0 2 0 0 0 0 0 0 2

GFSGL_con_mucape_171.txt.gz
CAPE
3689 3660 3996 3189 3399 3540 3474 3732 3529 3108 2856 2308 2096 2235 2027 1912 1744 1836 1953 1770 1555 1244 1410 1339 1245 1376 112 168 186 281 410 271 206 150 227 617 1289 1023 851 1019 1010 1024 633
3124 3375 3258 3380 3310 3416 3765 3442 2634 2213 1876 2111 2131 1952 1852 1498 1473 835 477 233 164 152 336 924 574 130 665 709 208 1010 523 779 688 760 491 413 860 913 966 942 846 318 871
3112 3447 3314 3227 3173 2897 2978 2206 1828 1790 1529 1292 1105 811 612 434 184 97 224 12 23 81 344 374 432 204 828 384 592 480 304 572 482 346 249 382 490 415 522 751 909 873 373
3284 3180 3193 2905 2638 2062 2064 2039 1699 1106 888 601 341 102 43 17 97 58 2 6 28 26 103 86 239 400 370 484 294 468 403 183 79 43 142 472 599 529 691 603 660 476 925
3124 3077 2595 2486 2321 1643 1339 1029 824 451 139 9 5 1 1 1 0 0 0 0 0 14 75 72 215 319 334 248 214 409 382 473 395 305 548 485 318 394 742 671 1108 1168 1025
2901 2446 2059 1619 1335 1110 699 312 110 37 8 2 5 14 3 0 0 0 0 0 4 31 56 54 183 136 150 137 12 21 8 51 128 535 380 684 627 443 82 845 262 644 480
2000 1713 1338 981 518 245 76 23 1 5 5 5 11 19 9 0 0 0 0 0 24 57 50 92 39 30 25 150 1 0 51 155 168 196 300 352 480 154 276 588 673 764 515
1373 953 568 303 113 26 15 5 0 2 4 10 13 6 8 1 0 0 0 2 43 25 58 22 22 17 5 3 1 0 8 6 74 128 164 135 77 107 221 288 582 555 563
623 285 108 27 6 12 1 1 0 0 2 3 6 17 17 1 0 0 0 1 3 8 28 44 16 0 0 76 32 0 5 3 61 5 5 14 56 44 77 58 287 415 292
75 24 6 0 0 0 0 0 0 0 3 0 6 15 4 1 1 0 0 2 4 6 14 19 0 0 8 108 17 3 21 5 0 2 18 121 107 346 151 346 359 273 155
2 1 0 0 3 0 1 1 2 3 6 8 8 12 23 2 0 0 0 2 0 8 9 7 0 0 0 0 0 5 24 1 3 0 13 27 16 127 22 144 287 80 10
0 0 0 1 6 0 2 1 6 0 0 1 0 0 1 6 0 0 0 0 0 0 0 0 0 0 0 1 0 8 1 3 4 17 14 1 0 0 1 18 122 105 18
0 0 0 1 0 0 0 0 0 0 0 0 0 0 0 0 0 0 0 0 0 0 0 0 0 0 0 0 1 1 0 3 2 0 0 0 0 0 21 46 12 9 2
0 0 1 0 0 0 0 0 0 0 0 0 0 0 0 0 0 0 0 0 0 0 0 0 0 0 0 0 0 0 0 0 0 0 0 0 0 0 2 16 9 0 4
0 0 7 0 0 0 0 0 0 0 0 0 0 0 0 0 0 0 0 0 0 0 0 0 0 0 0 0 0 0 0 0 0 0 0 0 0 0 3 14 0 16 3
0 0 0 0 0 0 0 0 0 0 0 0 0 0 0 0 0 0 0 0 0 0 0 0 0 0 0 0 0 0 0 0 0 0 0 0 0 3 0 1 5 2 2
0 0 0 0 0 0 0 0 0 0 0 0 0 0 0 0 0 0 0 0 0 0 0 0 0 0 0 0 0 0 0 0 0 0 0 0 1 1 10 0 2 15 11
0 0 0 0 0 0 0 0 0 0 0 0 0 0 0 0 0 0 0 0 0 0 0 0 0 0 0 0 0 0 0 0 0 0 0 0 0 3 11 12 2 4 7
0 0 0 0 0 0 0 0 0 0 0 0 0 0 0 0 0 0 0 0 0 0 0 0 0 0 0 0 0 0 0 0 0 0 0 0 0 7 7 12 10 0 2
0 0 0 0 0 0 0 0 0 0 0 0 0 0 0 0 0 0 0 0 0 0 0 0 0 0 0 0 0 0 0 0 0 0 0 0 0 12 9 11 17 28 31
0 0 0 0 0 0 0 0 0 0 0 0 0 0 0 0 0 0 0 0 0 0 0 0 0 0 0 0 0 0 0 0 0 0 0 0 0 7 14 16 11 16 31
0 0 0 0 0 0 0 0 0 0 0 0 0 0 0 0 0 0 0 0 0 0 0 0 0 0 0 0 0 0 0 0 0 0 0 0 0 0 4 6 7 14 23
0 0 0 0 0 0 0 0 0 0 0 0 0 0 0 0 0 0 0 0 0 0 0 0 0 0 0 0 0 0 0 0 0 0 0 0 0 0 1 0 0 1 13
0 0 0 0 0 0 0 0 0 0 0 0 0 0 0 0 0 0 0 0 0 0 0 0 0 0 0 0 0 0 0 0 0 0 0 0 0 0 0 0 0 1 3
0 0 0 0 0 0 0 0 0 0 0 0 0 0 0 0 0 0 0 0 0 0 0 0 0 0 0 0 0 0 0 0 0 0 0 0 0 1 0 0 0 1 3
0 0 0 0 0 0 0 0 0 0 0 0 0 0 0 0 0 0 0 0 0 0 0 0 0 0 0 0 0 0 0 0 0 0 0 0 0 0 0 0 0 0 1